User: anonymous   Login
Location: Dentlein
(49.1477°N, 10.4231°E)
Time: 08:46:45
(UTC+00:00)
Language:

Cosmos 1782 Rocket - Orbit

View from above orbital plane
View from above orbital plane
View from above satellite
View from above satellite

Ground track
Ground track

The orbit data is extracted from the following two-line orbital elements,

1 16987U 86074B   24196.84670932  .00000784  00000-0  90589-4 0  9991
2 16987  82.5146  48.8195 0018515  26.9011 343.6396 14.84242211 20503
Epoch (UTC): 14 July 2024 20:19:15
Eccentricity: 0.0018515
inclination: 82.5146°
perigee height: 603 km
apogee height: 629 km
right ascension of ascending node: 48.8195°
argument of perigee: 26.9011°
revolutions per day: 14.84242211
mean anomaly at epoch: 343.6396°
orbit number at epoch: 2050

The dashed part of the orbit path shows where the satellite is in the earth's shadow,  

DLR